Regional Weather Roundup
Issued by NWS Goodland, KS

Home | Current Version | Previous Version | Graphics & Text | Print | Product List | Glossary On
Versions: 1 2 3 4 5 6 7 8 9 10 11 12 13 14 15 16 17 18 19 20 21 22 23 24 25 26 27 28 29 30 31 32 33 34 35 36 37 38 39 40 41 42 43 44 45 46 47 48 49 50
000
ASUS43 KGLD 251408
RWRGLD

GOODLAND FORECAST AREA HOURLY WEATHER ROUNDUP
NATIONAL WEATHER SERVICE GOODLAND KS
800 AM MDT SAT APR 25 2015

...OFFICIAL OBSERVATIONS...

CITY           SKY/WX    TMP DP  RH WIND       PRES   REMARKS
GOODLAND KS    SUNNY     52  42  69 NW13      29.70R
HILL CITY KS   CLOUDY    58  49  72 NW16      29.61R
IMPERIAL NEB   MOSUNNY   52  44  74 N13       29.68R
MCCOOK NEB     MOSUNNY   55  49  80 NW5       29.64R
AKRON CO       SUNNY     51  38  60 W13       29.72S
BURLINGTON CO  SUNNY     55  40  56 W17       29.71R
LIMON CO       SUNNY     48  34  58 NW6       29.76F
$$

...UNOFFICIAL OBSERVATIONS...

CITY           SKY/WX    TMP DP  RH WIND       PRES   REMARKS
COLBY KS       SUNNY     55  48  76 NW14      29.68R
GOVE KS          N/A     54  32  43 MISG        N/A
LENORA KS        N/A     53  32  45 MISG        N/A
NORTON KS      SUNNY     57  46  67 NW18      29.61R
SHARON SPRINGS   N/A     54  47  77 N12G18      N/A
KIT CARSON CO    N/A     57  42  58 MISG        N/A
YUMA CO          N/A     52  40  63 W15         N/A
$$


USA.gov is the U.S. government's official web portal to all federal, state and local government web resources and services.